CZ-6A DEB, 61425

Orbit data source: Space-Track

CZ-6A DEB, 61425 is space debris in LEO originally from a launch on Tue, 06 Aug 2024 UTC launched from the Taiyaun Space Center, China (TSC). Debris objects in space refer to the collection of defunct objects orbiting the Earth. Examples of debris include non-operational satellites, rocket bodies, and fragments generated from explosions, collisions, or faulty payload assembly.

Loading next visibility...
Identifier
61425, 2024-140YS
Orbit
LEO
Country
Flag of CNCN / PRC
Related business
Manufacturer
SAST
Mission
Spacecraft
Bus & Motor
Unknown
Mass
Unknown
Launch date (UTC)
2024-08-06 (1 year ago)
Launch vehicle
Unknown
Launch site
Taiyaun Space Center, China (TSC)
Object type
Payload
Rocket body
Debris
Shape & HBR
Unknown shape, 0.1 m
Radar Cross Section
Small (<0.1 m²)

Expand to show TLE details & history
Last TLE update: 1 day ago

TLE from 1 day ago
0 CZ-6A DEB
1 61425U 24140YS  25312.66557352  .00000939  00000-0  44464-3 0  9997
2 61425  89.0070 300.2859 0053162 198.4605 161.4657 14.18134529 62838
Epoch: 2025-11-08T15:58Z
TLE epoch observation values (Epoch: 2025-11-08T15:58:25.552Z)
Latitude
0.00002°
Longitude
12.58751°
Altitude
871.088 km
Speed
7.398 km/s
True Right ascension
20h 01m 08s
True Declination
0° 00' 00"
Sunlit
Object was in daylight at epoch
Visualization orbit readout
Latitude
Unknown
Longitude
Unknown
Altitude
Unknown
Speed
Unknown
Apparent Right ascension
Unknown
Apparent Declination
Unknown
Sunlit
N/A
Visualization observer readout
Local Sidereal Time
19:59:09
Azimuth
Unknown
Elevation
Unknown
Doppler factor
Unknown
Orbital elements
Apogee altitude
866.935 km
Perigee altitude
790.31 km
Semi-major axis
7,206.759 km
Eccentricity
0.00532
Inclination
89.007°
RAAN
300.2859°
Arg. of periapsis
198.4605°
True anomaly
161.65813°
Mean anomaly
161.4657°
Eccentric anomaly
161.56204°
Mean motion
3.54759 °/min
Orbital period
101.48 mins
BSTAR
0.00044464
Loading maneuver chart data...
Computing Atmospheric mass density...

Documentation

Showing up to 5 results
|